Location: J��skel�
(62.1833°N, 25.8833°E)
Time: 02:29:59
(UTC+00:00)

Daily predictions for brighter satellites

Satellite Brightness Start Highest point End
(mag) Time Altitude Azimuth Time Altitude Azimuth Time Altitude Azimuth
Cosmos 1898 Rocket 4.1 00:02:02 10° NW 00:07:14 57° NE 00:12:26 10° SE
Resurs 1-4 Rocket 2.3 00:04:24 10° NNE 00:09:41 63° ESE 00:10:53 49° SSE
Cosmos 2227 Rocket 3.6 00:05:44 10° NW 00:08:31 23° WNW 00:08:31 23° WNW
Cosmos 1818 3.7 00:10:55 53° SSE 00:11:27 56° SE 00:16:48 10° ENE
CZ-2D R/B 2.3 00:07:20 10° NNE 00:12:39 65° ESE 00:13:55 49° SSE
Cosmos 1110 Rocket 4.5 00:12:47 44° W 00:13:53 52° NW 00:19:05 10° NE
Timation 1 Rocket 4.3 00:09:23 10° NW 00:15:15 55° WSW 00:15:24 55° SW
Cosmos 1331 Rocket 4.4 00:17:48 44° W 00:18:53 51° NW 00:23:58 10° NNE
Cosmos 1356 4.2 00:15:54 10° NNW 00:19:01 50° NE 00:19:01 50° NE
Cosmos 1656 Rocket 4.3 00:18:45 34° W 00:20:44 49° NNW 00:26:12 10° NE
Cosmos 1302 Rocket 4.0 00:20:48 57° WSW 00:21:41 70° NW 00:26:58 10° NE
IRAS Rocket 4.3 00:22:54 53° SW 00:23:25 55° WSW 00:28:56 10° NNW
SJ 16-02 1.4 00:20:04 10° NNW 00:24:30 78° NE 00:26:08 38° SE
Meteor 1-22 4.5 00:20:28 10° NNW 00:25:56 71° WSW 00:27:00 56° SSW
Cosmos 1943 Rocket 3.4 00:24:28 18° WNW 00:28:07 37° NNW 00:33:17 10° NE
Cosmos 1937 Rocket 4.0 00:23:27 10° NW 00:28:36 59° NE 00:33:41 10° SE
NPP 3.7 00:25:41 10° NNE 00:31:08 73° ESE 00:32:50 44° S
Cosmos 1933 3.9 00:30:52 47° SE 00:31:29 53° E 00:35:29 10° NNE
Meteor 1-29 4.0 00:28:32 10° N 00:30:57 38° NNW 00:30:57 38° NNW
Cosmos 405 3.3 00:33:03 64° NE 00:33:03 64° NE 00:36:10 10° NNE
Cosmos 2221 3.2 00:33:12 41° WNW 00:33:12 41° WNW 00:37:16 10° N
NOSS 3-4 (A) 3.6 00:27:50 10° WNW 00:34:23 74° SSW 00:41:43 10° SE
NOSS 3-4 (C) 3.6 00:27:56 10° WNW 00:34:29 74° SSW 00:41:49 10° SE
COBE Rocket 4.4 00:34:35 44° W 00:34:35 44° W 00:39:29 10° NNW
Lacrosse 5 3.2 00:34:39 25° SSE 00:34:54 25° SE 00:39:01 10° E
ATLAS 5 CENTAUR R/B 1.6 00:34:44 66° SSW 00:35:14 74° SSE 00:40:27 10° ENE
SL-08 R/B 3.2 00:34:03 38° SSE 00:35:52 84° ENE 00:40:30 10° NNW
RESURS DK-1 4.2 00:33:28 10° NW 00:37:12 30° N 00:40:57 10° ENE
Meteor 1-20 Rocket 4.1 00:33:43 10° NNW 00:39:09 64° W 00:40:25 49° SSW
Cosmos 2181 Rocket 4.0 00:37:22 45° SW 00:39:17 68° WNW 00:45:34 10° NNE
Meteor 1-14 Rocket 4.1 00:33:41 10° NNW 00:39:23 87° ENE 00:43:03 22° SSE
AQUA 3.9 00:35:12 10° NNE 00:39:59 73° ESE 00:41:16 48° S
ARIANE 5 R/B 3.9 00:36:44 10° NNE 00:41:22 33° E 00:45:09 14° SSE
COSMOS 2455 3.4 00:38:02 10° WNW 00:44:01 57° N 00:50:00 10° E
NOSS 2-1 (E) 3.1 00:44:06 80° S 00:44:11 81° SSE 00:48:42 10° ENE
Cosmos 1606 2.5 00:45:51 88° W 00:45:52 88° WNW 00:49:40 10° NNE
H-2A R/B 3.2 00:44:26 10° SE 00:48:43 46° ENE 00:53:04 10° NNW
SL-19 R/B 4.4 00:48:05 44° SW 00:49:17 51° WSW 00:55:00 10° NNW
Genesis I 3.0 00:49:32 84° SSW 00:49:38 86° SSE 00:53:33 10° ENE
CZ-4C R/B 4.4 00:48:49 10° SE 00:52:09 39° ENE 00:55:26 10° N
ATLAS CENTAUR R/B 3.9 00:35:51 10° W 00:52:11 66° S 00:58:04 10° ESE
IRS-1D 3.8 00:47:10 10° NNE 00:52:33 67° ESE 00:55:05 31° S
Sich 1 4.5 00:49:24 10° NNW 00:51:52 23° WNW 00:51:52 23° WNW
Cosmos 2369 4.2 00:51:28 31° S 00:53:54 53° ESE 00:59:28 10° NE
SL-19 R/B 4.2 00:49:19 10° NNE 00:54:27 61° WNW 00:55:58 43° WSW
Cosmos 2297 Rocket 4.3 00:52:51 10° WNW 00:53:25 11° WNW 00:53:25 11° WNW
CBERS-1 4.2 00:52:13 10° NNE 00:57:20 68° ESE 00:59:47 31° S
ATLAS 2AS CENTAUR R/B 2.8 00:50:23 10° WNW 00:58:09 72° SSW 01:05:20 10° SE
ERS-2 4.0 00:55:28 10° ESE 00:58:46 32° ENE 01:02:04 10° N
ADEOS Rocket 4.0 00:53:05 10° SE 00:59:00 46° NE 01:04:28 10° NNW
NOSS 7 (H) 4.3 01:00:32 86° N 01:00:33 86° N 01:04:22 10° ESE
Cosmos 972 Rocket 4.3 00:59:29 32° S 01:01:33 59° ESE 01:06:36 10° NE
ADEOS II 2.2 00:56:25 10° NNE 01:01:42 71° ESE 01:04:23 30° S
Cosmos 220 Rocket 3.9 01:01:56 57° SW 01:02:46 84° NW 01:07:07 10° NE
Cosmos 1470 Rocket 3.7 00:58:39 10° NNW 01:02:58 51° W 01:03:16 50° WSW
SL-16 R/B 3.4 01:04:18 29° W 01:04:46 29° W 01:10:06 10° NNW
Cosmos 990 Rocket 3.8 00:59:37 10° NW 01:04:49 74° WSW 01:10:01 10° SSE
IDEFIX/ARIANE 42P 3.7 01:00:27 10° NNE 01:05:26 40° E 01:10:24 10° SSE
Cosmos 1782 3.3 01:06:41 32° SSE 01:08:20 58° E 01:12:19 10° NNE
NOSS 7 (E) 4.2 01:09:13 72° NW 01:09:29 83° N 01:13:07 10° ESE
Cosmos 2369 Rocket 3.5 01:07:25 13° WNW 01:11:56 36° N 01:17:12 10° ENE
Meteor 1-28 Rocket 3.4 01:13:48 48° W 01:13:48 48° W 01:17:07 10° NNW
Helios 1B rocket 3.9 01:13:59 10° N 01:17:19 24° NW 01:18:05 22° WNW
Cosmos 1697 Rocket 2.8 01:14:51 32° SSW 01:17:30 73° SE 01:23:08 10° NE
Cosmos 921 Rocket 4.4 01:16:07 15° SSE 01:18:59 32° ESE 01:22:46 10° NE
Cosmos 2263 Rocket 2.5 01:14:01 10° NW 01:19:19 43° WSW 01:24:39 10° S
Meteor 1-11 Rocket 3.9 01:13:46 10° NNW 01:19:39 76° ENE 01:25:21 10° SSE
Iridium 2 4.0 01:18:12 27° SSE 01:20:03 62° E 01:23:49 10° NNE
CZ-4B R/B 3.7 01:18:25 10° ESE 01:21:14 27° ENE 01:24:07 10° N
Cosmos 2360 4.4 01:20:50 27° SSW 01:23:57 66° SE 01:29:39 10° NE
Cosmos 1980 Rocket 2.7 01:20:37 23° S 01:24:02 55° ESE 01:29:33 10° NE
Cosmos 1844 Rocket 2.7 01:18:34 10° NW 01:24:15 86° NE 01:29:56 10° SE
USA 234 3.7 01:18:40 10° SE 01:24:42 39° SSW 01:28:11 23° W
Cosmos 2278 Rocket 3.3 01:20:15 10° NW 01:25:44 46° NNE 01:31:11 10° E
Cosmos 1821 Rocket 4.4 01:20:05 10° NNW 01:25:58 42° W 01:28:34 29° SW
Cosmos 389 Rocket 2.8 01:26:29 33° S 01:27:55 65° ESE 01:31:31 10° NNE
Cosmos 1844 3.7 01:23:42 10° NW 01:29:21 82° NE 01:34:56 10° SE
Cosmos 1151 Rocket 3.1 01:28:20 39° SW 01:29:47 62° WNW 01:34:09 10° NNE
Cosmos 1515 Rocket 3.5 01:27:57 29° SSW 01:30:13 88° ESE 01:34:41 10° NNE
Cosmos 1633 Rocket 4.4 01:27:02 10° NNW 01:29:56 22° WNW 01:29:56 22° WNW
USA 307 4.3 01:29:59 23° S 01:30:38 24° SSE 01:34:04 10° ESE
Cosmos 1934 Rocket 4.0 01:26:06 10° NNW 01:32:00 55° W 01:36:29 18° SSW
Cosmos 1500 3.1 01:28:34 10° NNW 01:32:24 61° W 01:33:57 33° SSW
CZ-4B R/B 3.5 01:27:43 10° NNE 01:32:48 77° WNW 01:35:39 27° SSW
Cosmos 2322 Rocket 4.1 01:28:46 10° SSE 01:33:20 25° ESE 01:37:54 10° NE
USA 308 4.3 01:33:10 23° S 01:33:56 24° SSE 01:37:24 10° ESE
Cosmos 44 4.2 01:32:09 21° S 01:34:35 37° SE 01:39:00 10° ENE
Cosmos 1656 3.7 01:32:51 30° WSW 01:35:37 70° NW 01:41:14 10° NE
Cosmos 1328 Rocket 3.7 01:35:10 35° SW 01:36:54 60° WNW 01:41:19 10° NNE
NOSS 2-1 (C) 3.4 01:35:35 34° W 01:37:11 78° N 01:41:55 10° E
CZ-2D R/B 4.1 01:33:09 10° NNE 01:37:19 56° ESE 01:40:58 14° S
Cosmos 1666 2.7 01:33:45 10° NNW 01:37:37 85° ENE 01:41:26 10° SSE
Cosmos 1933 Rocket 4.1 01:35:45 10° NNW 01:39:45 36° W 01:40:30 33° WSW
Cosmos 2173 Rocket 4.4 01:35:43 10° NNW 01:42:03 69° ENE 01:48:24 10° SSE
IRS-1C 4.1 01:36:47 10° NNE 01:42:11 88° ESE 01:46:10 19° SSW
NOSS 2-1 (D) 3.4 01:40:30 31° W 01:42:15 77° N 01:46:59 10° E
Meteor 1-4 Rocket 4.0 01:39:42 10° SSE 01:42:57 36° E 01:46:17 10° NNE
Cosmos 372 Rocket 3.9 01:38:07 10° NW 01:43:21 89° NE 01:48:30 10° SE
SL-16 R/B 3.7 01:39:23 10° S 01:44:22 32° ESE 01:49:22 10° NE
Cosmos 1238 Rocket 4.2 01:39:46 10° NNW 01:46:09 50° W 01:51:14 14° SSW
Spot 4 Rocket 4.4 01:43:18 10° NNE 01:48:27 65° ESE 01:53:34 10° S
Cosmos 1536 2.9 01:44:57 10° NNW 01:49:04 83° ENE 01:53:09 10° SSE
Cosmos 1898 Rocket 3.7 01:44:19 10° NW 01:49:19 45° WSW 01:54:19 10° S
Resurs 1-4 Rocket 2.8 01:44:29 10° NNE 01:49:23 39° NW 01:51:57 24° WSW
CZ-2C R/B 4.1 01:45:10 10° NNE 01:49:53 35° E 01:54:38 10° SSE
Cosmos 1812 3.3 01:46:29 12° S 01:49:55 58° E 01:53:44 10° NNE
Cosmos 1733 Rocket 3.3 01:45:39 10° NNW 01:50:03 70° ENE 01:54:23 10° SSE
CZ-4C R/B 2.7 01:44:17 10° WNW 01:50:45 76° SSW 01:58:32 10° SE
CZ-2D R/B 2.8 01:47:39 10° NNE 01:52:34 39° NW 01:55:13 23° WSW
ASTEX 1 3.4 01:49:55 10° N 01:54:55 72° WNW 01:59:09 15° SSW
Cosmos 1818 3.7 01:51:33 23° WSW 01:55:00 76° NNW 02:00:31 10° ENE
MSX 4.3 01:49:34 10° NNE 01:55:21 63° ESE 02:01:05 10° S
Meteor 1-26 Rocket 4.1 01:52:08 21° SSW 01:55:47 68° WNW 02:01:16 10° NNE
Cosmos 2298 Rocket 4.1 01:53:38 10° NW 01:59:01 86° NE 02:04:20 10° SE
Cosmos 1869 Rocket 3.8 01:55:42 10° NNW 01:59:54 47° W 02:03:44 12° SSW
IRIDIUM 104 4.3 01:55:34 10° N 02:00:48 75° W 02:06:01 10° S
SJ 16-02 2.3 01:59:06 10° NW 02:02:42 25° WSW 02:02:59 25° WSW
Cosmos 1605 Rocket 4.2 01:58:19 10° NNW 02:04:29 52° W 02:10:39 10° SSW
Nadezhda 3 Rocket 4.2 02:01:33 20° SW 02:05:41 51° WNW 02:11:43 10° NNE
Meteor 1-5 Rocket 4.4 02:00:57 10° NNW 02:06:00 45° W 02:11:06 10° SSW
Cosmos 1933 4.3 02:06:43 23° W 02:08:17 31° WNW 02:11:56 10° N
IRIDIUM 114 4.3 02:04:44 10° N 02:09:56 66° W 02:15:07 10° S
Cosmos 1937 Rocket 3.8 02:05:38 10° NW 02:10:30 42° WSW 02:15:18 10° S
NPP 4.5 02:06:13 10° NNE 02:11:06 36° NW 02:14:20 19° WSW
Cosmos 1943 Rocket 3.5 02:08:00 10° NW 02:13:09 36° NNE 02:18:16 10° E
Cosmos 2016 Rocket 4.2 02:07:28 10° NNW 02:13:39 76° ENE 02:19:45 10° SSE
Cosmos 2228 Rocket 3.0 02:10:31 14° SSW 02:14:14 73° WNW 02:18:43 10° NNE
SL-08 R/B 4.4 02:13:02 21° WSW 02:14:16 23° W 02:17:59 10° NW
Landsat 5 3.8 02:10:19 10° S 02:14:41 49° WSW 02:18:58 10° NNW
Cosmos 2061 Rocket 4.3 02:08:56 10° NNW 02:15:25 78° ENE 02:21:53 10° SSE
RESURS DK-1 3.0 02:11:48 10° NW 02:15:56 58° NE 02:20:04 10° ESE
Cosmos 1689 Rocket 3.8 02:13:23 10° SE 02:16:11 37° ENE 02:19:00 10° N
Lacrosse 5 2.5 02:13:50 19° SW 02:17:04 44° SSE 02:21:52 10° E
USA 32 4.0 02:12:24 10° NNW 02:17:39 70° W 02:22:53 10° S
IRIDIUM 103 4.4 02:13:55 10° N 02:19:04 58° W 02:24:10 10° SSW
ATLAS 5 CENTAUR R/B 2.0 02:16:15 17° W 02:19:59 78° N 02:25:35 10° E
ARIANE 5 R/B 2.5 02:15:47 10° NNE 02:20:53 66° WNW 02:25:29 12° SW
Meteor 1-10 Rocket 4.4 02:15:23 10° SSW 02:21:16 86° ESE 02:27:15 10° NNE
IRS-P3 4.3 02:16:05 10° NNE 02:21:19 56° WNW 02:25:43 15° SW
Cosmos 1125 Rocket 3.6 02:16:40 10° NW 02:22:01 85° NE 02:27:19 10° SE
Cosmos 1606 4.4 02:20:52 16° W 02:22:10 18° NW 02:24:54 10° N
Exosat Rocket 4.1 02:17:28 10° NW 02:23:09 85° SW 02:31:00 10° SE
Cosmos 972 4.3 02:20:12 15° SW 02:24:15 75° NW 02:29:16 10° NNE
NOSS 3-4 (A) 4.3 02:18:42 10° WNW 02:24:45 35° SW 02:31:21 10° S
H-2A R/B 2.5 02:20:31 10° S 02:24:46 42° W 02:29:06 10° NNW
NOSS 3-4 (C) 4.3 02:18:48 10° WNW 02:24:51 36° SW 02:31:29 10° S
CZ-4C R/B 3.7 02:21:40 10° SSW 02:24:57 34° W 02:28:11 10° NNW
Meteor 2-6 Rocket 4.3 02:19:19 10° SSW 02:25:07 81° WNW 02:31:07 10° NNE
Cosmos 1743 2.7 02:21:26 10° NNW 02:25:16 85° ENE 02:29:06 10° SSE
Cosmos 2150 Rocket 4.0 02:21:33 10° NW 02:27:03 74° WSW 02:32:28 10° SSE
Genesis I 3.5 02:24:25 16° W 02:27:26 60° N 02:31:18 10° E
USA 267 4.2 02:21:43 10° E 02:27:47 38° SSE 02:33:49 10° SW
ERBS 4.3 02:25:39 11° SSW 02:27:56 20° SSE 02:30:28 10° ESE
Cosmos 2278 3.7 02:23:24 16° SW 02:28:06 78° NW 02:33:50 10° NE
CZ-2C R/B 2.7 02:24:26 10° NNE 02:28:13 86° WNW 02:32:05 10° SSW
COSMOS 2455 2.9 02:24:20 10° NW 02:30:26 90° SSW 02:36:31 10° SE
Cosmos 1763 Rocket 4.0 02:25:49 10° SSW 02:31:03 61° ESE 02:36:16 10° NE
IRS-1D 4.3 02:26:41 10° NNE 02:31:36 38° NW 02:35:34 15° WSW
ERS-2 2.3 02:28:41 10° S 02:32:14 46° WSW 02:35:49 10° NNW
NOSS 2-1 (E) 3.7 02:31:25 14° W 02:34:48 77° N 02:40:02 10° E
Cosmos 1725 Rocket 4.1 02:29:16 10° NNW 02:35:32 86° ENE 02:41:44 10° SSE
Cosmos 1544 3.1 02:32:43 10° NNW 02:36:21 80° ENE 02:39:57 10° SSE
USA 305 4.2 02:34:11 15° SW 02:36:52 27° S 02:40:30 10° ESE
Cosmos 2369 4.0 02:33:25 15° WSW 02:38:09 61° NW 02:43:51 10° NE
PSLV R/B 4.4 02:34:49 10° SSE 02:38:53 66° ENE 02:43:00 10° NNW
ADEOS II 2.9 02:36:24 10° NNE 02:41:11 36° NW 02:45:19 13° WSW
USA 306 4.2 02:38:23 14° SW 02:41:13 27° S 02:44:50 10° ESE
Aureole 2 Rocket 3.3 02:39:00 10° NNW 02:42:02 44° NE 02:44:56 10° ESE
Cosmos 2100 Rocket 4.1 02:37:24 10° NNW 02:43:41 59° W 02:49:55 10° S
ADEOS Rocket 3.0 02:38:19 10° S 02:44:35 58° WSW 02:50:18 10° NNW
Cosmos 1782 3.9 02:42:19 15° WSW 02:44:58 28° WNW 02:48:30 10° N
IDEFIX/ARIANE 42P 2.8 02:40:06 10° NNE 02:45:18 57° WNW 02:50:27 10° SW
PAYLOAD A 3.9 02:41:43 10° NNE 02:46:29 81° ESE 02:51:11 10° SSW
Cosmos 1975 3.1 02:43:40 10° NNW 02:47:44 74° ENE 02:51:45 10° SSE
ATLAS 2AS CENTAUR R/B 3.5 02:41:38 10° WNW 02:48:15 33° WSW 02:54:27 10° S
Cosmos 540 Rocket 4.4 02:44:48 10° S 02:49:47 51° ESE 02:54:49 10° NE
EP 3 4.0 02:48:57 17° W 02:50:23 62° N 02:52:44 10° E
Cosmos 1459 Rocket 4.0 02:44:56 10° NNW 02:50:55 56° W 02:56:48 10° S
Cosmos 1802 Rocket 4.0 02:46:31 10° NNW 02:52:37 63° W 02:58:47 10° S
Cosmos 1727 Rocket 4.0 02:46:19 10° SSW 02:52:39 73° WNW 02:58:59 10° NNE
CZ-4B R/B 1.6 02:50:12 10° S 02:53:21 47° WSW 02:56:38 10° NNW
COSMO-SKYMED 1 2.7 02:52:07 10° SSE 02:56:28 84° ENE 03:00:52 10° NNW
deb Chang Zheng 4 4.5 02:52:24 10° NNE 02:56:39 52° ESE 03:00:50 10° S
APEX 4.2 02:51:54 10° NW 02:56:48 86° NE 03:02:55 10° SE
Cosmos 921 Rocket 3.1 02:52:59 10° SW 02:57:07 56° NW 03:01:18 10° NNE
Cosmos 2369 Rocket 3.4 02:51:54 10° NW 02:57:15 39° NNE 03:02:38 10° E
Cosmos 2360 Rocket 3.3 02:52:31 10° S 02:57:54 45° ESE 03:03:17 10° NE
Cosmos 1697 Rocket 3.2 02:56:36 11° WSW 03:01:51 48° NNW 03:07:19 10° NE
Cosmos 2263 Rocket 3.8 02:59:48 10° WNW 03:01:54 12° W 03:03:59 10° WSW
Meteor 1-11 Rocket 4.5 02:57:37 10° NNW 03:02:39 31° W 03:07:34 10° SSW
Cosmos 1782 Rocket 3.8 02:58:08 10° NNW 03:02:40 81° ENE 03:07:09 10° SSE
Cosmos 389 Rocket 3.9 03:00:21 12° WSW 03:02:59 23° NW 03:05:56 10° N
Cosmos 1484 Rocket 3.8 02:59:36 10° NNE 03:03:32 53° E 03:07:28 10° S
Cosmos 2297 4.5 02:58:00 10° NW 03:03:36 55° NNE 03:09:08 10° ESE
Cosmos 1908 Rocket 3.6 02:59:37 10° NNW 03:04:05 68° W 03:08:32 10° S
Cosmos 468 Rocket 4.0 02:58:49 10° SW 03:04:08 86° NW 03:09:25 10° NE
Cosmos 1844 Rocket 3.4 03:02:46 10° NW 03:07:43 32° WSW 03:12:39 10° S
Cosmos 1980 Rocket 2.5 03:02:31 10° WSW 03:08:07 59° NW 03:13:44 10° NE
SAR-Lupe-4 4.0 03:06:02 10° S 03:09:27 41° W 03:12:54 10° NNW
USA 307 4.2 03:06:18 10° WSW 03:09:53 27° S 03:13:29 10° SE
Cosmos 2278 Rocket 2.2 03:04:35 10° NW 03:10:17 80° SW 03:15:57 10° SE
USA 116 4.3 03:08:03 10° SE 03:11:04 47° ENE 03:14:08 10° N
Cosmos 1666 4.2 03:10:07 10° NW 03:12:42 17° W 03:15:15 10° SW
CZ-2D R/B 4.3 03:09:02 10° N 03:12:49 33° WNW 03:16:40 10° WSW
Cosmos 1844 4.3 03:08:09 10° NW 03:13:07 34° WSW 03:18:03 10° S
USA 308 4.2 03:09:35 10° WSW 03:13:12 27° S 03:16:47 10° SE
Cosmos 2123 Rocket 4.3 03:08:05 10° S 03:14:20 76° E 03:20:41 10° NNE
Cosmos 44 3.3 03:10:52 10° WSW 03:15:31 86° NNW 03:20:28 10° ENE
Meteor 1-31 Rocket 3.6 03:12:20 10° NNE 03:16:08 55° ESE 03:19:54 10° S
Cosmos 2322 Rocket 2.4 03:10:59 10° SW 03:16:42 79° SE 03:22:27 10° NE
Meteor 1-4 Rocket 3.2 03:14:44 10° SW 03:18:01 35° WNW 03:21:22 10° N
Okean 1 3.8 03:14:54 10° S 03:18:56 69° ESE 03:22:59 10° NNE
Meteor 2-9 Rocket 4.2 03:13:31 10° NNW 03:19:04 67° WSW 03:24:26 10° S
Okean 1-7 4.1 03:16:03 10° S 03:20:09 49° E 03:24:17 10° NNE
Intercosmos 25 3.1 03:16:53 10° S 03:20:10 76° E 03:23:31 10° NNE
Meteor 1-27 Rocket 3.9 03:15:21 10° SSW 03:21:14 65° WNW 03:27:05 10° NNE
Cosmos 1707 Rocket 3.9 03:17:31 10° SW 03:21:45 48° WNW 03:26:01 10° N
Cosmos 1515 4.4 03:19:08 10° S 03:22:53 60° E 03:26:38 10° NNE
Cosmos 1536 4.2 03:22:03 10° NW 03:25:00 19° W 03:27:57 10° SW
SL-24 R/B 4.5 03:21:53 10° SSE 03:25:56 71° ENE 03:30:36 10° NNW
SL-16 R/B 2.3 03:22:21 10° SW 03:28:03 85° NW 03:33:47 10° NE
ATLAS CENTAUR R/B 4.0 03:22:43 10° WNW 03:31:21 30° SW 03:35:26 10° S
